loading
|

MIDAS 5 DEB, 273

Orbit data source: Space-Track

MIDAS 5 DEB, 273 is space debris originally from a launch on Mon, 09 Apr 1962 UTC launched from the Air Force Western Test Range (AFWTR). Debris objects in space refer to the collection of defunct objects orbiting the Earth. Examples of debris include non-operational satellites, rocket bodies, and fragments generated from explosions, collisions, or faulty payload assembly.

Loading next visibility...
Loading greatness...
MIDAS 5 DEB details
Identifier
273, 1962-010C
Orbit
Active
Last TLE update14 hours ago
Origin
Flag of USUSAF SSD (US)
ManufacturerUnknown
Mission statusUnknown
MissionUnknown
Bus & MotorUnknown
Mass~10 kg wet, ~10 kg dry
Launch date (UTC)
1962-04-09 (62 years ago)
Launch vehicleUnknown
Launch site
Air Force Western Test Range (AFWTR)
Object type
Payload
Rocket body
Debris
Radar Cross SectionMedium (>0.1 m² and <1 m²)

Expand to show TLE details & history

TLE from 14 hours ago
0 MIDAS 5 DEB
1 00273U 62010C   24258.75227490  .00000046  00000-0  85199-2 0  9992
2 00273  86.6696  30.7018 0318713 288.7761  67.8821  9.43801812150864
Epoch: 2024-09-14T18:03Z
Definitive object data (Epoch: 2024-09-14T18:03:16.551Z)
Latitude-0.00004°
Longitude125.67735°
Altitude2,977.391 km
Speed6.564 km/s
True Right ascension02h 02m 48s
True Declination0° 00' 00"
Sunlit
Object was in full shadow at TLE epoch
Predictive object data (real-time)
Latitude2.67087°
Longitude-54.56278°
Altitude3,180.808 km
Speed6.425 km/s
Apparent Right ascension13h 35m 15s
Apparent Declination-14° 16' 30"
Sunlit
Object is in daylight
Predictive observer data (real-time)
Local Sidereal Time00:43:06
Azimuth332.313° NNW
Elevation-61.928°
Doppler factor1
Orbital elements
Apogee3,379.271 km
Perigee2,776.519 km
Semi-major axis9,456.032 km
Eccentricity0.0318713
Inclination86.6696°
RAAN30.7018°
Arg. of periapsis288.7761°
True anomaly71.31496°
Mean anomaly67.8821°
Eccentric anomaly69.59359°
Mean motion2.36037 °/min
BSTAR0.0085199
Period152.52 mins
No data available

MIDAS 5 DEB Visibility forecast

Observer location: 39.9160978°, -105.1181434

MIDAS 5 DEB is not visible in the next 10 days
Span
Click to sort rows by Start time (UTC) header in descending order
Start Az.
Max El. time (UTC)
Max El. Az.
Max El.
End time (UTC)
End Az.